owner,sensor,date,latitude,longitude,vertical_datum,direction_of_sea_water_velocity,sea_water_speed,upward_sea_water_velocity,qcFlag 
TABS,ioos:station:wmo:42051:1,2005-05-01T00:00:00Z,29.6350,-93.6417,2.0,263.9622557,15.87806663,-99999.0,'11111222,11111222,99999999' 
TABS,ioos:station:wmo:42051:1,2005-05-01T00:30:00Z,29.6350,-93.6417,2.0,263.3498684,16.14863771,-99999.0,'11111222,11111222,99999999' 
TABS,ioos:station:wmo:42051:1,2005-05-01T01:00:00Z,29.6350,-93.6417,2.0,266.3980531,15.60081088,-99999.0,'11111222,11111222,99999999' 
TABS,ioos:station:wmo:42051:1,2005-05-01T01:30:00Z,29.6350,-93.6417,2.0,257.438812,15.54198507,-99999.0,'11111222,11111222,99999999' 
TABS,ioos:station:wmo:42051:1,2005-05-01T02:00:00Z,29.6350,-93.6417,2.0,242.6081179,16.43233702,-99999.0,'11111222,11111222,99999999' 
TABS,ioos:station:wmo:42051:1,2005-05-01T02:30:00Z,29.6350,-93.6417,2.0,246.6952381,16.3542441,-99999.0,'11111222,11111222,99999999' 
TABS,ioos:station:wmo:42051:1,2005-05-01T03:00:00Z,29.6350,-93.6417,2.0,248.4780164,15.21048651,-99999.0,'11111222,11111222,99999999' 
TABS,ioos:station:wmo:42051:1,2005-05-01T03:30:00Z,29.6350,-93.6417,2.0,253.4360697,13.75059271,-99999.0,'11111222,11111222,99999999' 
TABS,ioos:station:wmo:42051:1,2005-05-01T04:00:00Z,29.6350,-93.6417,2.0,267.0264302,12.91738751,-99999.0,'11111222,11111222,99999999' 
TABS,ioos:station:wmo:42051:1,2005-05-01T04:30:00Z,29.6350,-93.6417,2.0,238.0810559,10.49717105,-99999.0,'11111222,11111222,99999999' 
TABS,ioos:station:wmo:42051:1,2005-05-01T05:00:00Z,29.6350,-93.6417,2.0,237.4599507,8.979632509,-99999.0,'11133222,11111222,99999999' 
TABS,ioos:station:wmo:42051:1,2005-05-01T06:00:00Z,29.6350,-93.6417,2.0,295.0414721,5.717412002,-99999.0,'11133222,11111222,99999999' 
TABS,ioos:station:wmo:42051:1,2005-05-01T06:30:00Z,29.6350,-93.6417,2.0,310.8627318,6.664172867,-99999.0,'11133222,11111222,99999999' 
TABS,ioos:station:wmo:42051:1,2005-05-01T07:30:00Z,29.6350,-93.6417,2.0,307.6119964,6.48854375,-99999.0,'11133222,11111222,99999999' 
TABS,ioos:station:wmo:42051:1,2005-05-01T08:00:00Z,29.6350,-93.6417,2.0,291.2867763,5.784643464,-99999.0,'11133222,11111222,99999999' 
TABS,ioos:station:wmo:42051:1,2005-05-01T08:30:00Z,29.6350,-93.6417,2.0,306.7988804,8.030006227,-99999.0,'11133222,11111222,99999999' 
TABS,ioos:station:wmo:42051:1,2005-05-01T09:00:00Z,29.6350,-93.6417,2.0,3.030680218,5.107142058,-99999.0,'11133222,11111222,99999999' 
TABS,ioos:station:wmo:42051:1,2005-05-01T09:30:00Z,29.6350,-93.6417,2.0,298.2712025,14.27243847,-99999.0,'11111222,11111222,99999999' 
TABS,ioos:station:wmo:42051:1,2005-05-01T10:00:00Z,29.6350,-93.6417,2.0,300.7621418,12.64981423,-99999.0,'11111222,11111222,99999999' 
TABS,ioos:station:wmo:42051:1,2005-05-01T10:30:00Z,29.6350,-93.6417,2.0,290.531075,13.23033257,-99999.0,'11111222,11111222,99999999' 
TABS,ioos:station:wmo:42051:1,2005-05-01T11:00:00Z,29.6350,-93.6417,2.0,279.6379365,18.81555208,-99999.0,'11111222,11111222,99999999' 
TABS,ioos:station:wmo:42051:1,2005-05-01T11:30:00Z,29.6350,-93.6417,2.0,273.4634079,19.86627544,-99999.0,'11111222,11111222,99999999' 
TABS,ioos:station:wmo:42051:1,2005-05-01T12:00:00Z,29.6350,-93.6417,2.0,277.1285701,22.56439895,-99999.0,'11111222,11111222,99999999' 
TABS,ioos:station:wmo:42051:1,2005-05-01T12:30:00Z,29.6350,-93.6417,2.0,272.4132032,23.99126925,-99999.0,'11111222,11111222,99999999' 
TABS,ioos:station:wmo:42051:1,2005-05-01T13:00:00Z,29.6350,-93.6417,2.0,271.0724075,22.98402271,-99999.0,'11111222,11111222,99999999' 
TABS,ioos:station:wmo:42051:1,2005-05-01T13:30:00Z,29.6350,-93.6417,2.0,268.4043088,26.94044172,-99999.0,'11111222,11111222,99999999' 
TABS,ioos:station:wmo:42051:1,2005-05-01T14:00:00Z,29.6350,-93.6417,2.0,269.5629569,23.62068585,-99999.0,'11111222,11111222,99999999' 
TABS,ioos:station:wmo:42051:1,2005-05-01T14:30:00Z,29.6350,-93.6417,2.0,209.351723,5.426647215,-99999.0,'11133222,11111222,99999999' 
TABS,ioos:station:wmo:42051:1,2005-05-01T15:00:00Z,29.6350,-93.6417,2.0,269.3644837,29.77182897,-99999.0,'11111222,11111222,99999999' 
TABS,ioos:station:wmo:42051:1,2005-05-01T15:30:00Z,29.6350,-93.6417,2.0,264.8279711,27.29109745,-99999.0,'11111222,11111222,99999999' 
TABS,ioos:station:wmo:42051:1,2005-05-01T16:00:00Z,29.6350,-93.6417,2.0,260.9862657,30.00044833,-99999.0,'11111222,11111222,99999999' 
TABS,ioos:station:wmo:42051:1,2005-05-01T16:30:00Z,29.6350,-93.6417,2.0,258.7090729,28.96047134,-99999.0,'11111222,11111222,99999999' 
TABS,ioos:station:wmo:42051:1,2005-05-01T17:00:00Z,29.6350,-93.6417,2.0,263.118909,37.81233264,-99999.0,'11111222,11111222,99999999' 
TABS,ioos:station:wmo:42051:1,2005-05-01T17:30:00Z,29.6350,-93.6417,2.0,263.899309,38.76953572,-99999.0,'11111222,11111222,99999999' 
TABS,ioos:station:wmo:42051:1,2005-05-01T18:00:00Z,29.6350,-93.6417,2.0,268.9067533,37.22677128,-99999.0,'11111222,11111222,99999999' 
TABS,ioos:station:wmo:42051:1,2005-05-01T18:30:00Z,29.6350,-93.6417,2.0,263.8805918,34.89883093,-99999.0,'11111222,11111222,99999999' 
TABS,ioos:station:wmo:42051:1,2005-05-01T19:00:00Z,29.6350,-93.6417,2.0,260.969859,42.24352376,-99999.0,'11111222,11111222,99999999' 
TABS,ioos:station:wmo:42051:1,2005-05-01T19:30:00Z,29.6350,-93.6417,2.0,262.9118558,40.0359401,-99999.0,'11111222,11111222,99999999' 
TABS,ioos:station:wmo:42051:1,2005-05-01T20:00:00Z,29.6350,-93.6417,2.0,265.5815404,40.89150768,-99999.0,'11111222,11111222,99999999' 
TABS,ioos:station:wmo:42051:1,2005-05-01T20:30:00Z,29.6350,-93.6417,2.0,269.4794193,37.45154336,-99999.0,'11111222,11111222,99999999' 
TABS,ioos:station:wmo:42051:1,2005-05-01T21:00:00Z,29.6350,-93.6417,2.0,273.9339734,32.21589204,-99999.0,'11111222,11111222,99999999' 
TABS,ioos:station:wmo:42051:1,2005-05-01T21:30:00Z,29.6350,-93.6417,2.0,276.0269625,29.05055249,-99999.0,'11111222,11111222,99999999' 
TABS,ioos:station:wmo:42051:1,2005-05-01T22:00:00Z,29.6350,-93.6417,2.0,275.7338741,24.92468856,-99999.0,'11111222,11111222,99999999' 
TABS,ioos:station:wmo:42051:1,2005-05-01T22:30:00Z,29.6350,-93.6417,2.0,273.0850874,24.71581073,-99999.0,'11111222,11111222,99999999' 
TABS,ioos:station:wmo:42051:1,2005-05-01T23:00:00Z,29.6350,-93.6417,2.0,286.7934067,25.16308805,-99999.0,'11111222,11111222,99999999' 
TABS,ioos:station:wmo:42051:1,2005-05-01T23:30:00Z,29.6350,-93.6417,2.0,278.6486859,28.92892151,-99999.0,'11111222,11111222,99999999' 
TABS,ioos:station:wmo:42051:1,2005-05-02T00:00:00Z,29.6350,-93.6417,2.0,283.3138617,26.53308312,-99999.0,'11111222,11111222,99999999' 
TABS,ioos:station:wmo:42051:1,2005-05-02T00:30:00Z,29.6350,-93.6417,2.0,288.3743252,23.76136781,-99999.0,'11111222,11111222,99999999' 
TABS,ioos:station:wmo:42051:1,2005-05-02T02:30:00Z,29.6350,-93.6417,2.0,283.3228469,21.22108857,-99999.0,'11111222,11111222,99999999' 
TABS,ioos:station:wmo:42051:1,2005-05-02T03:00:00Z,29.6350,-93.6417,2.0,271.67701,22.89980349,-99999.0,'11111222,11111222,99999999' 
TABS,ioos:station:wmo:42051:1,2005-05-02T03:30:00Z,29.6350,-93.6417,2.0,272.8053396,19.41325836,-99999.0,'11111222,11111222,99999999' 
TABS,ioos:station:wmo:42051:1,2005-05-02T04:00:00Z,29.6350,-93.6417,2.0,265.2873809,18.50254037,-99999.0,'11111222,11111222,99999999' 
TABS,ioos:station:wmo:42051:1,2005-05-02T04:30:00Z,29.6350,-93.6417,2.0,258.7742381,19.93130452,-99999.0,'11111222,11111222,99999999' 
TABS,ioos:station:wmo:42051:1,2005-05-02T05:00:00Z,29.6350,-93.6417,2.0,262.2144571,15.50289005,-99999.0,'11111222,11111222,99999999' 
TABS,ioos:station:wmo:42051:1,2005-05-02T05:30:00Z,29.6350,-93.6417,2.0,251.9441092,16.71300392,-99999.0,'11111222,11111222,99999999' 
TABS,ioos:station:wmo:42051:1,2005-05-02T06:00:00Z,29.6350,-93.6417,2.0,252.7168538,19.1862555,-99999.0,'11111222,11111222,99999999' 
TABS,ioos:station:wmo:42051:1,2005-05-02T06:30:00Z,29.6350,-93.6417,2.0,255.4591959,20.67211165,-99999.0,'11111222,11111222,99999999' 
TABS,ioos:station:wmo:42051:1,2005-05-02T07:00:00Z,29.6350,-93.6417,2.0,248.6305271,15.25902028,-99999.0,'11111222,11111222,99999999' 
TABS,ioos:station:wmo:42051:1,2005-05-02T07:30:00Z,29.6350,-93.6417,2.0,251.8790336,15.56180259,-99999.0,'11111222,11111222,99999999' 
TABS,ioos:station:wmo:42051:1,2005-05-02T08:00:00Z,29.6350,-93.6417,2.0,240.2947852,14.20694197,-99999.0,'11111222,11111222,99999999' 
TABS,ioos:station:wmo:42051:1,2005-05-02T08:30:00Z,29.6350,-93.6417,2.0,252.5591987,13.84653747,-99999.0,'11111222,11111222,99999999' 
TABS,ioos:station:wmo:42051:1,2005-05-02T09:00:00Z,29.6350,-93.6417,2.0,258.7151416,13.23587927,-99999.0,'11111222,11111222,99999999' 
TABS,ioos:station:wmo:42051:1,2005-05-02T09:30:00Z,29.6350,-93.6417,2.0,251.5808906,11.17232742,-99999.0,'11111222,11111222,99999999' 
TABS,ioos:station:wmo:42051:1,2005-05-02T10:00:00Z,29.6350,-93.6417,2.0,259.7529446,10.56855714,-99999.0,'11111222,11111222,99999999' 
TABS,ioos:station:wmo:42051:1,2005-05-02T10:30:00Z,29.6350,-93.6417,2.0,268.5210375,13.56451621,-99999.0,'11111222,11111222,99999999' 
TABS,ioos:station:wmo:42051:1,2005-05-02T11:00:00Z,29.6350,-93.6417,2.0,0.000210459,0.06,-99999.0,'11133222,11111222,99999999' 
TABS,ioos:station:wmo:42051:1,2005-05-02T11:30:00Z,29.6350,-93.6417,2.0,271.7794571,14.8171421,-99999.0,'11111222,11111222,99999999' 
TABS,ioos:station:wmo:42051:1,2005-05-02T12:00:00Z,29.6350,-93.6417,2.0,270.8697246,13.84159312,-99999.0,'11111222,11111222,99999999' 
TABS,ioos:station:wmo:42051:1,2005-05-02T12:30:00Z,29.6350,-93.6417,2.0,278.1545478,16.85035608,-99999.0,'11111222,11111222,99999999' 
TABS,ioos:station:wmo:42051:1,2005-05-02T13:30:00Z,29.6350,-93.6417,2.0,282.3993674,17.23191516,-99999.0,'11111222,11111222,99999999' 
TABS,ioos:station:wmo:42051:1,2005-05-02T14:00:00Z,29.6350,-93.6417,2.0,287.8409948,15.24299839,-99999.0,'11111222,11111222,99999999' 
TABS,ioos:station:wmo:42051:1,2005-05-02T14:30:00Z,29.6350,-93.6417,2.0,271.5513681,16.62609094,-99999.0,'11111222,11111222,99999999' 
TABS,ioos:station:wmo:42051:1,2005-05-02T15:00:00Z,29.6350,-93.6417,2.0,259.4990485,20.68643275,-99999.0,'11111222,11111222,99999999' 
TABS,ioos:station:wmo:42051:1,2005-05-02T15:30:00Z,29.6350,-93.6417,2.0,271.3681012,21.78620665,-99999.0,'11111222,11111222,99999999' 
TABS,ioos:station:wmo:42051:1,2005-05-02T16:00:00Z,29.6350,-93.6417,2.0,263.3308843,25.2307055,-99999.0,'11111222,11111222,99999999' 
TABS,ioos:station:wmo:42051:1,2005-05-02T16:30:00Z,29.6350,-93.6417,2.0,265.600884,21.64375199,-99999.0,'11111222,11111222,99999999' 
TABS,ioos:station:wmo:42051:1,2005-05-02T17:00:00Z,29.6350,-93.6417,2.0,261.0173135,21.5847006,-99999.0,'11111222,11111222,99999999' 
TABS,ioos:station:wmo:42051:1,2005-05-02T17:30:00Z,29.6350,-93.6417,2.0,261.6152956,22.63188238,-99999.0,'11111222,11111222,99999999' 
TABS,ioos:station:wmo:42051:1,2005-05-02T18:00:00Z,29.6350,-93.6417,2.0,245.91715,22.30111208,-99999.0,'11111222,11111222,99999999' 
TABS,ioos:station:wmo:42051:1,2005-05-02T18:30:00Z,29.6350,-93.6417,2.0,246.5826788,22.39447476,-99999.0,'11111222,11111222,99999999' 
TABS,ioos:station:wmo:42051:1,2005-05-02T19:00:00Z,29.6350,-93.6417,2.0,247.0567808,22.65189838,-99999.0,'11111222,11111222,99999999' 
TABS,ioos:station:wmo:42051:1,2005-05-02T19:30:00Z,29.6350,-93.6417,2.0,246.5521156,23.27165873,-99999.0,'11111222,11111222,99999999' 
TABS,ioos:station:wmo:42051:1,2005-05-02T20:00:00Z,29.6350,-93.6417,2.0,250.0911553,23.61104826,-99999.0,'11111222,11111222,99999999' 
TABS,ioos:station:wmo:42051:1,2005-05-02T20:30:00Z,29.6350,-93.6417,2.0,248.1753572,23.26762773,-99999.0,'11111222,11111222,99999999' 
TABS,ioos:station:wmo:42051:1,2005-05-02T21:00:00Z,29.6350,-93.6417,2.0,240.0210473,18.85219616,-99999.0,'11111222,11111222,99999999' 
TABS,ioos:station:wmo:42051:1,2005-05-02T21:30:00Z,29.6350,-93.6417,2.0,257.6816425,17.3903479,-99999.0,'11111222,11111222,99999999' 
TABS,ioos:station:wmo:42051:1,2005-05-02T22:00:00Z,29.6350,-93.6417,2.0,266.004295,21.24162188,-99999.0,'11111222,11111222,99999999' 
TABS,ioos:station:wmo:42051:1,2005-05-02T22:30:00Z,29.6350,-93.6417,2.0,264.178511,15.47982235,-99999.0,'11111222,11111222,99999999' 
TABS,ioos:station:wmo:42051:1,2005-05-02T23:00:00Z,29.6350,-93.6417,2.0,251.3875461,17.38944795,-99999.0,'11111222,11111222,99999999' 
TABS,ioos:station:wmo:42051:1,2005-05-02T23:30:00Z,29.6350,-93.6417,2.0,267.0430745,13.37780625,-99999.0,'11111222,11111222,99999999' 
TABS,ioos:station:wmo:42051:1,2005-05-03T00:00:00Z,29.6350,-93.6417,2.0,268.0092548,14.10851162,-99999.0,'11111222,11111222,99999999' 
TABS,ioos:station:wmo:42051:1,2005-05-03T00:30:00Z,29.6350,-93.6417,2.0,262.0079516,12.87503786,-99999.0,'11111222,11111222,99999999' 
TABS,ioos:station:wmo:42051:1,2005-05-03T01:00:00Z,29.6350,-93.6417,2.0,254.6743769,12.18322207,-99999.0,'11111222,11111222,99999999' 
TABS,ioos:station:wmo:42051:1,2005-05-03T01:30:00Z,29.6350,-93.6417,2.0,262.615997,12.91710881,-99999.0,'11111222,11111222,99999999' 
TABS,ioos:station:wmo:42051:1,2005-05-03T02:00:00Z,29.6350,-93.6417,2.0,277.8715844,10.95319588,-99999.0,'11111222,11111222,99999999' 
TABS,ioos:station:wmo:42051:1,2005-05-03T02:30:00Z,29.6350,-93.6417,2.0,260.9005946,10.37049661,-99999.0,'11111222,11111222,99999999' 
TABS,ioos:station:wmo:42051:1,2005-05-03T03:00:00Z,29.6350,-93.6417,2.0,250.1136481,14.11144571,-99999.0,'11111222,11111222,99999999' 
TABS,ioos:station:wmo:42051:1,2005-05-03T03:30:00Z,29.6350,-93.6417,2.0,256.793682,14.22620821,-99999.0,'11111222,11111222,99999999' 
TABS,ioos:station:wmo:42051:1,2005-05-03T04:00:00Z,29.6350,-93.6417,2.0,243.9026176,13.13957381,-99999.0,'11111222,11111222,99999999' 
TABS,ioos:station:wmo:42051:1,2005-05-03T04:30:00Z,29.6350,-93.6417,2.0,243.7035817,14.28863184,-99999.0,'11111222,11111222,99999999' 
TABS,ioos:station:wmo:42051:1,2005-05-03T05:00:00Z,29.6350,-93.6417,2.0,237.3150841,13.59224779,-99999.0,'11111222,11111222,99999999' 
TABS,ioos:station:wmo:42051:1,2005-05-03T05:30:00Z,29.6350,-93.6417,2.0,237.5823627,13.85983045,-99999.0,'11111222,11111222,99999999' 
TABS,ioos:station:wmo:42051:1,2005-05-03T06:00:00Z,29.6350,-93.6417,2.0,227.2753417,12.99980384,-99999.0,'11111222,11111222,99999999' 
TABS,ioos:station:wmo:42051:1,2005-05-03T06:30:00Z,29.6350,-93.6417,2.0,229.8705971,14.73984057,-99999.0,'11111222,11111222,99999999' 
TABS,ioos:station:wmo:42051:1,2005-05-03T07:00:00Z,29.6350,-93.6417,2.0,234.6523347,12.94657097,-99999.0,'11111222,11111222,99999999' 
TABS,ioos:station:wmo:42051:1,2005-05-03T07:30:00Z,29.6350,-93.6417,2.0,238.5130385,14.28299688,-99999.0,'11111222,11111222,99999999' 
TABS,ioos:station:wmo:42051:1,2005-05-03T08:00:00Z,29.6350,-93.6417,2.0,248.156017,12.60500298,-99999.0,'11111222,11111222,99999999' 
TABS,ioos:station:wmo:42051:1,2005-05-03T08:30:00Z,29.6350,-93.6417,2.0,317.7838515,16.16231728,-99999.0,'11111222,11111222,99999999' 
TABS,ioos:station:wmo:42051:1,2005-05-03T09:00:00Z,29.6350,-93.6417,2.0,248.6019231,13.70465614,-99999.0,'11111222,11111222,99999999' 
TABS,ioos:station:wmo:42051:1,2005-05-03T09:30:00Z,29.6350,-93.6417,2.0,247.1028658,13.21092351,-99999.0,'11111222,11111222,99999999' 
TABS,ioos:station:wmo:42051:1,2005-05-03T10:00:00Z,29.6350,-93.6417,2.0,245.769856,12.84122268,-99999.0,'11111222,11111222,99999999' 
TABS,ioos:station:wmo:42051:1,2005-05-03T10:30:00Z,29.6350,-93.6417,2.0,253.4001423,11.55140251,-99999.0,'11111222,11111222,99999999' 
TABS,ioos:station:wmo:42051:1,2005-05-03T11:00:00Z,29.6350,-93.6417,2.0,239.9134402,13.32528799,-99999.0,'11111222,11111222,99999999' 
TABS,ioos:station:wmo:42051:1,2005-05-03T11:30:00Z,29.6350,-93.6417,2.0,257.376045,13.7729336,-99999.0,'11111222,11111222,99999999' 
TABS,ioos:station:wmo:42051:1,2005-05-03T12:00:00Z,29.6350,-93.6417,2.0,260.0757965,17.34958789,-99999.0,'11111222,11111222,99999999' 
TABS,ioos:station:wmo:42051:1,2005-05-03T12:30:00Z,29.6350,-93.6417,2.0,260.5599973,16.58457114,-99999.0,'11111222,11111222,99999999' 
TABS,ioos:station:wmo:42051:1,2005-05-03T13:00:00Z,29.6350,-93.6417,2.0,268.972319,14.50233085,-99999.0,'11111222,11111222,99999999' 
TABS,ioos:station:wmo:42051:1,2005-05-03T13:30:00Z,29.6350,-93.6417,2.0,266.3479897,19.46952747,-99999.0,'11111222,11111222,99999999' 
TABS,ioos:station:wmo:42051:1,2005-05-03T14:00:00Z,29.6350,-93.6417,2.0,261.4054027,19.20565021,-99999.0,'11111222,11111222,99999999' 
TABS,ioos:station:wmo:42051:1,2005-05-03T14:30:00Z,29.6350,-93.6417,2.0,263.9492281,20.30309582,-99999.0,'11111222,11111222,99999999' 
TABS,ioos:station:wmo:42051:1,2005-05-03T15:00:00Z,29.6350,-93.6417,2.0,261.7337779,21.49327802,-99999.0,'11111222,11111222,99999999' 
TABS,ioos:station:wmo:42051:1,2005-05-03T15:30:00Z,29.6350,-93.6417,2.0,266.0213183,17.87306633,-99999.0,'11111222,11111222,99999999' 
TABS,ioos:station:wmo:42051:1,2005-05-03T16:00:00Z,29.6350,-93.6417,2.0,267.1734199,22.10688807,-99999.0,'11111222,11111222,99999999' 
TABS,ioos:station:wmo:42051:1,2005-05-03T16:30:00Z,29.6350,-93.6417,2.0,268.4806451,24.89874896,-99999.0,'11111222,11111222,99999999' 
TABS,ioos:station:wmo:42051:1,2005-05-03T17:00:00Z,29.6350,-93.6417,2.0,266.0237565,23.79727085,-99999.0,'11111222,11111222,99999999' 
TABS,ioos:station:wmo:42051:1,2005-05-03T17:30:00Z,29.6350,-93.6417,2.0,264.4533754,24.62528172,-99999.0,'11111222,11111222,99999999' 
TABS,ioos:station:wmo:42051:1,2005-05-03T18:30:00Z,29.6350,-93.6417,2.0,260.4931218,27.73082941,-99999.0,'11111222,11111222,99999999' 
TABS,ioos:station:wmo:42051:1,2005-05-03T19:00:00Z,29.6350,-93.6417,2.0,256.0130037,25.19703554,-99999.0,'11111222,11111222,99999999' 
TABS,ioos:station:wmo:42051:1,2005-05-03T19:30:00Z,29.6350,-93.6417,2.0,254.5050057,22.87124177,-99999.0,'11111222,11111222,99999999' 
TABS,ioos:station:wmo:42051:1,2005-05-03T20:00:00Z,29.6350,-93.6417,2.0,251.1944985,26.43086832,-99999.0,'11111222,11111222,99999999' 
TABS,ioos:station:wmo:42051:1,2005-05-03T20:30:00Z,29.6350,-93.6417,2.0,260.1981992,29.72385742,-99999.0,'11111222,11111222,99999999' 
TABS,ioos:station:wmo:42051:1,2005-05-03T21:00:00Z,29.6350,-93.6417,2.0,263.0695799,26.6043643,-99999.0,'11111222,11111222,99999999' 
TABS,ioos:station:wmo:42051:1,2005-05-03T21:30:00Z,29.6350,-93.6417,2.0,260.0446608,20.65092008,-99999.0,'11111222,11111222,99999999' 
TABS,ioos:station:wmo:42051:1,2005-05-03T22:00:00Z,29.6350,-93.6417,2.0,258.0373278,20.8426126,-99999.0,'11111222,11111222,99999999' 
TABS,ioos:station:wmo:42051:1,2005-05-03T22:30:00Z,29.6350,-93.6417,2.0,259.6425023,18.63360942,-99999.0,'11111222,11111222,99999999' 
TABS,ioos:station:wmo:42051:1,2005-05-03T23:00:00Z,29.6350,-93.6417,2.0,262.2853697,17.73046249,-99999.0,'11111222,11111222,99999999' 
TABS,ioos:station:wmo:42051:1,2005-05-03T23:30:00Z,29.6350,-93.6417,2.0,259.2030612,15.32120752,-99999.0,'11111222,11111222,99999999' 
TABS,ioos:station:wmo:42051:1,2005-05-04T00:00:00Z,29.6350,-93.6417,2.0,255.3112339,13.21177127,-99999.0,'11111222,11111222,99999999' 
TABS,ioos:station:wmo:42051:1,2005-05-04T00:30:00Z,29.6350,-93.6417,2.0,253.7026167,14.32560295,-99999.0,'11111222,11111222,99999999' 
TABS,ioos:station:wmo:42051:1,2005-05-04T01:00:00Z,29.6350,-93.6417,2.0,251.0464018,10.83756892,-99999.0,'11111222,11111222,99999999' 
TABS,ioos:station:wmo:42051:1,2005-05-04T01:30:00Z,29.6350,-93.6417,2.0,232.6921916,12.30835895,-99999.0,'11111222,11111222,99999999' 
TABS,ioos:station:wmo:42051:1,2005-05-04T02:00:00Z,29.6350,-93.6417,2.0,252.805431,11.97519102,-99999.0,'11111222,11111222,99999999' 
TABS,ioos:station:wmo:42051:1,2005-05-04T02:30:00Z,29.6350,-93.6417,2.0,248.1578289,10.53635611,-99999.0,'11111222,11111222,99999999' 
TABS,ioos:station:wmo:42051:1,2005-05-04T03:00:00Z,29.6350,-93.6417,2.0,243.7506385,11.35045374,-99999.0,'11111222,11111222,99999999' 
TABS,ioos:station:wmo:42051:1,2005-05-04T03:30:00Z,29.6350,-93.6417,2.0,262.8846392,14.12879683,-99999.0,'11111222,11111222,99999999' 
TABS,ioos:station:wmo:42051:1,2005-05-04T04:00:00Z,29.6350,-93.6417,2.0,254.5970839,12.61301312,-99999.0,'11111222,11111222,99999999' 
TABS,ioos:station:wmo:42051:1,2005-05-04T04:30:00Z,29.6350,-93.6417,2.0,256.3702634,14.34391857,-99999.0,'11111222,11111222,99999999' 
TABS,ioos:station:wmo:42051:1,2005-05-04T05:00:00Z,29.6350,-93.6417,2.0,253.6683821,17.74601364,-99999.0,'11111222,11111222,99999999' 
TABS,ioos:station:wmo:42051:1,2005-05-04T05:30:00Z,29.6350,-93.6417,2.0,251.7788253,18.61329632,-99999.0,'11111222,11111222,99999999' 
TABS,ioos:station:wmo:42051:1,2005-05-04T06:00:00Z,29.6350,-93.6417,2.0,254.220351,16.10696744,-99999.0,'11111222,11111222,99999999' 
TABS,ioos:station:wmo:42051:1,2005-05-04T06:30:00Z,29.6350,-93.6417,2.0,250.9955685,15.60028525,-99999.0,'11111222,11111222,99999999' 
TABS,ioos:station:wmo:42051:1,2005-05-04T07:00:00Z,29.6350,-93.6417,2.0,255.5237685,16.12181752,-99999.0,'11111222,11111222,99999999' 
TABS,ioos:station:wmo:42051:1,2005-05-04T07:30:00Z,29.6350,-93.6417,2.0,244.6914164,16.51509915,-99999.0,'11111222,11111222,99999999' 
TABS,ioos:station:wmo:42051:1,2005-05-04T08:00:00Z,29.6350,-93.6417,2.0,247.7160379,17.43183869,-99999.0,'11111222,11111222,99999999' 
TABS,ioos:station:wmo:42051:1,2005-05-04T08:30:00Z,29.6350,-93.6417,2.0,241.9812853,19.92530301,-99999.0,'11111222,11111222,99999999' 
TABS,ioos:station:wmo:42051:1,2005-05-04T09:00:00Z,29.6350,-93.6417,2.0,246.3163364,15.21108149,-99999.0,'11111222,11111222,99999999' 
TABS,ioos:station:wmo:42051:1,2005-05-04T09:30:00Z,29.6350,-93.6417,2.0,233.7279603,15.51684568,-99999.0,'11111222,11111222,99999999' 
TABS,ioos:station:wmo:42051:1,2005-05-04T10:00:00Z,29.6350,-93.6417,2.0,246.3060338,18.39015226,-99999.0,'11111222,11111222,99999999' 
TABS,ioos:station:wmo:42051:1,2005-05-04T10:30:00Z,29.6350,-93.6417,2.0,234.9156113,19.38141378,-99999.0,'11111222,11111222,99999999' 
TABS,ioos:station:wmo:42051:1,2005-05-04T11:00:00Z,29.6350,-93.6417,2.0,236.287033,21.13407911,-99999.0,'11111222,11111222,99999999' 
TABS,ioos:station:wmo:42051:1,2005-05-04T11:30:00Z,29.6350,-93.6417,2.0,241.7784073,19.03241708,-99999.0,'11111222,11111222,99999999' 
TABS,ioos:station:wmo:42051:1,2005-05-04T12:00:00Z,29.6350,-93.6417,2.0,243.8408424,19.55266989,-99999.0,'11111222,11111222,99999999' 
TABS,ioos:station:wmo:42051:1,2005-05-04T12:30:00Z,29.6350,-93.6417,2.0,249.2685362,15.70699526,-99999.0,'11111222,11111222,99999999' 
TABS,ioos:station:wmo:42051:1,2005-05-04T13:00:00Z,29.6350,-93.6417,2.0,253.5181304,15.12131277,-99999.0,'11111222,11111222,99999999' 
TABS,ioos:station:wmo:42051:1,2005-05-04T13:30:00Z,29.6350,-93.6417,2.0,253.570316,15.45086729,-99999.0,'11111222,11111222,99999999' 
TABS,ioos:station:wmo:42051:1,2005-05-04T14:00:00Z,29.6350,-93.6417,2.0,259.0670508,10.12373449,-99999.0,'11111222,11111222,99999999' 
TABS,ioos:station:wmo:42051:1,2005-05-04T14:30:00Z,29.6350,-93.6417,2.0,253.5856763,11.92604293,-99999.0,'11111222,11111222,99999999' 
TABS,ioos:station:wmo:42051:1,2005-05-04T15:00:00Z,29.6350,-93.6417,2.0,242.7054338,21.43668351,-99999.0,'11111222,11111222,99999999' 
TABS,ioos:station:wmo:42051:1,2005-05-04T15:30:00Z,29.6350,-93.6417,2.0,249.9872762,23.4350336,-99999.0,'11111222,11111222,99999999' 
TABS,ioos:station:wmo:42051:1,2005-05-04T16:00:00Z,29.6350,-93.6417,2.0,259.6342944,27.12262524,-99999.0,'11111222,11111222,99999999' 
TABS,ioos:station:wmo:42051:1,2005-05-04T16:30:00Z,29.6350,-93.6417,2.0,259.3897674,21.50770095,-99999.0,'11111222,11111222,99999999' 
TABS,ioos:station:wmo:42051:1,2005-05-04T17:00:00Z,29.6350,-93.6417,2.0,258.7825701,20.5628038,-99999.0,'11111222,11111222,99999999' 
TABS,ioos:station:wmo:42051:1,2005-05-04T17:30:00Z,29.6350,-93.6417,2.0,258.7887242,20.4196425,-99999.0,'11111222,11111222,99999999' 
TABS,ioos:station:wmo:42051:1,2005-05-04T18:00:00Z,29.6350,-93.6417,2.0,239.0515881,18.78424074,-99999.0,'11111222,11111222,99999999' 
TABS,ioos:station:wmo:42051:1,2005-05-04T18:30:00Z,29.6350,-93.6417,2.0,240.3639018,22.79142383,-99999.0,'11111222,11111222,99999999' 
TABS,ioos:station:wmo:42051:1,2005-05-04T19:00:00Z,29.6350,-93.6417,2.0,237.5550912,24.75379769,-99999.0,'11111222,11111222,99999999' 
TABS,ioos:station:wmo:42051:1,2005-05-04T19:30:00Z,29.6350,-93.6417,2.0,241.6918336,27.49846723,-99999.0,'11111222,11111222,99999999' 